Location: Complexul Astronomic Baia Mare
(47.6577°N, 23.5639°E)
Time: 06:42:45
(UTC+03:00)

ISS - Pass Details

Date: 21 May 2017
Orbit: 402 x 408 km, 51.6° (Epoch: 29 May)

Event Time Altitude Azimuth Distance (km) Brightness Sun altitude
Rises 03:57:38 0° 290° (WNW) 2,331 -0.2 -13.7°
Reaches altitude 10° 03:59:47 10° 296° (WNW) 1,468 -1.1 -13.5°
Maximum altitude 04:02:58 47° 12° (NNE) 548 -2.7 -13.2°
Drops below altitude 10° 04:06:09 10° 88° (E) 1,461 -0.4 -12.8°
Sets 04:08:17 0° 94° (E) 2,318 0.5 -12.6°
